This demonstration page uses our WeatherBlox Daily Observations layout. Learn more.

Hourly Observations for October 16, 2016

Temp ( °F °C ) Dew Point ( °F °C ) Humidity (%) Winds ( mph kmh ) Pressure ( in mb ) Visibility ( mi km ) Precip ( " mm )
12:15 am 00:15 Clear 54 12.2 50 10.2 88 88 ENE 6 9 29.83 1010 10 16.09344 0 0
12:35 am 00:35 Clear 53 11.8 49 9.6 87 87 NE 7 11 29.83 1010 10 16.09344 0 0
12:55 am 00:55 Clear 53 11.4 49 9.3 87 87 ENE 8 13 29.83 1010 10 16.09344 0 0
1:15 am 01:15 Clear 54 12.3 49 9.5 83 83 ENE 8 13 29.8 1009 10 16.09344 0 0
1:35 am 01:35 Clear 54 12.3 48 8.8 79 79 ENE 8 13 29.8 1009 10 16.09344 0 0
1:55 am 01:55 Clear 54 12.1 47 8.4 78 78 ENE 7 11 29.8 1009 10 16.09344 0 0
2:15 am 02:15 Clear 51 10.8 46 8 83 83 ENE 3 6 29.8 1009 10 16.09344 0 0
2:35 am 02:35 Clear 51 10.8 46 8 83 83 ENE 5 7 29.8 1009 10 16.09344 0 0
2:55 am 02:55 Clear 51 10.4 47 8.1 86 86 ENE 5 7 29.83 1010 10 16.09344 0 0
3:15 am 03:15 Clear 51 10.3 47 8.4 88 88 ENE 7 11 29.8 1009 10 16.09344 0 0
3:35 am 03:35 Clear 50 10.2 47 8.3 88 88 ENE 8 13 29.8 1009 10 16.09344 0 0
3:55 am 03:55 Clear 49 9.5 46 7.8 89 89 ENE 3 6 29.8 1009 10 16.09344 0 0
4:15 am 04:15 Clear 49 9.7 47 8.5 92 92 Calm 29.8 1009 10 16.09344 0 0
4:35 am 04:35 Clear 48 9 46 7.8 92 92 Calm 29.8 1009 10 16.09344 0 0
4:55 am 04:55 Clear 47 8.2 45 7.1 93 93 Calm 29.8 1009 10 16.09344 0 0
5:15 am 05:15 Clear 47 8.4 46 7.5 94 94 ESE 3 6 29.8 1009 10 16.09344 0 0
5:35 am 05:35 Cloudy with Fog 46 7.9 45 7 94 94 E 7 11 29.8 1009 0.25 0.402336 0 0
5:55 am 05:55 Cloudy with Fog 51 10.7 50 10.1 96 96 E 5 7 29.74 1007 0.5 0.804672 0 0
6:15 am 06:15 Cloudy with Fog 51 10.3 50 9.8 97 97 Calm 29.74 1007 0.25 0.402336 0 0
6:35 am 06:35 Cloudy with Fog 52 11.3 51 10.8 97 97 E 8 13 29.74 1007 0.25 0.402336 0 0
6:55 am 06:55 Cloudy with Drizzle 53 11.8 52 11.3 97 97 ESE 6 9 29.74 1007 0.25 0.402336 0 0
7:15 am 07:15 Cloudy with Light Drizzle 54 12.1 53 11.6 97 97 E 7 11 29.74 1007 0.25 0.402336 0 0
7:35 am 07:35 Cloudy with Drizzle 55 13 55 12.5 97 97 ESE 7 11 29.71 1006 0.25 0.402336 0 0
7:55 am 07:55 Cloudy with Drizzle 56 13.6 56 13.1 97 97 ESE 8 13 29.68 1005 0.25 0.402336 0 0
8:15 am 08:15 Cloudy with Light Rain 57 13.8 56 13.3 97 97 ESE 7 11 29.68 1005 0.25 0.402336 0 0
8:35 am 08:35 Cloudy with Light Drizzle 58 14.7 58 14.2 97 97 ESE 8 13 29.68 1005 0.25 0.402336 0 0
8:55 am 08:55 Cloudy with Fog 60 15.8 60 15.3 97 97 SE 8 13 29.68 1005 0.25 0.402336 0 0
9:15 am 09:15 Cloudy with Fog 62 16.5 61 16 97 97 S 13 20 29.68 1005 0.25 0.402336 0 0
9:35 am 09:35 Cloudy with Mist and Fog 62 16.8 61 16.3 97 97 S 16 26 29.65 1004 1.5 2.414016 0 0
9:55 am 09:55 Cloudy with Mist and Fog 63 17 62 16.5 97 97 SSE 13 20 29.62 1003 1.75 2.816352 0 0
10:15 am 10:15 Cloudy with Fog 63 17 62 16.5 97 97 S 10 17 29.62 1003 0.5 0.804672 0 0
10:35 am 10:35 Cloudy with Mist and Fog 63 17.2 62 16.7 97 97 S 15 24 29.62 1003 1.5 2.414016 0 0
10:55 am 10:55 Cloudy with Mist and Fog 63 17.3 62 16.8 97 97 S 15 24 29.62 1003 2.5 4.02336 0 0
11:15 am 11:15 Cloudy with Mist and Fog 63 17.4 62 16.9 97 97 S 12 19 29.62 1003 3 4.828032 0 0
11:35 am 11:35 Cloudy with Mist and Fog 63 17.3 62 16.8 97 97 S 14 22 29.62 1003 3 4.828032 0 0
11:55 am 11:55 Cloudy 63 17.3 62 16.8 97 97 S 13 20 29.62 1003 7 11.265408 0 0
12:15 pm 12:15 Cloudy with Mist and Fog 63 17.2 62 16.7 97 97 S 9 15 29.59 1002 5 8.04672 0 0
12:35 pm 12:35 Cloudy 64 17.5 63 17 97 97 S 10 17 29.62 1003 10 16.09344 0 0
12:55 pm 12:55 Cloudy 64 17.8 63 17.1 96 96 S 8 13 29.62 1003 10 16.09344 0 0
1:15 pm 13:15 Cloudy 66 19.1 61 16.2 83 83 S 8 13 29.59 1002 10 16.09344 0 0
1:35 pm 13:35 Cloudy 68 20.1 60 15.8 76 76 S 12 19 29.56 1001 10 16.09344 0 0
1:55 pm 13:55 Mostly Cloudy 69 20.7 60 15.7 73 73 S 9 15 29.53 1000 10 16.09344 0 0
2:15 pm 14:15 Partly Cloudy 72 22.3 60 15.6 66 66 S 10 17 29.53 1000 10 16.09344 0 0
2:35 pm 14:35 Partly Cloudy 73 22.9 60 15.6 64 64 SSW 14 22 29.53 1000 10 16.09344 0 0
2:55 pm 14:55 Sunny 73 23 60 15.3 62 62 S 10 17 29.47 998 10 16.09344 0 0
3:15 pm 15:15 Sunny 74 23.6 59 14.9 58 58 SSW 14 22 29.5 999 10 16.09344 0 0
3:35 pm 15:35 Sunny 76 24.2 58 14.4 54 54 SW 8 13 29.47 998 10 16.09344 0 0
3:55 pm 15:55 Sunny 76 24.7 57 14.1 52 52 SSW 10 17 29.47 998 10 16.09344 0 0
4:15 pm 16:15 Sunny 76 24.4 55 12.7 48 48 SW 9 15 29.47 998 10 16.09344 0 0
4:35 pm 16:35 undefined 77 25.2 55 12.6 46 46 SW 6 9 29.47 998 10 16.09344 0 0
4:55 pm 16:55 Sunny 78 25.6 54 12.2 43 43 SW 7 11 29.47 998 10 16.09344 0 0
5:15 pm 17:15 Sunny 79 26 52 11.3 40 40 SW 7 11 29.47 998 10 16.09344 0 0
5:35 pm 17:35 Sunny 79 26.1 53 11.5 40 40 SW 5 7 29.47 998 10 16.09344 0 0
5:55 pm 17:55 Sunny 78 25.7 53 11.7 42 42 SW 6 9 29.5 999 10 16.09344 0 0
6:15 pm 18:15 Sunny 75 24.1 54 12 47 47 WSW 3 6 29.5 999 10 16.09344 0 0
6:35 pm 18:35 Sunny 73 22.7 54 12.2 52 52 NNW 3 6 29.53 1000 10 16.09344 0 0
6:55 pm 18:55 Sunny 66 18.9 52 11.2 61 61 Calm 29.53 1000 10 16.09344 0 0
7:15 pm 19:15 Clear 65 18.3 51 10.8 62 62 Calm 29.56 1001 10 16.09344 0 0
7:35 pm 19:35 Clear 64 17.7 53 11.5 67 67 Calm 29.56 1001 10 16.09344 0 0
7:55 pm 19:55 Clear 62 16.5 51 10.5 68 68 Calm 29.56 1001 10 16.09344 0 0
8:15 pm 20:15 Clear 57 14 49 9.3 74 74 Calm 29.59 1002 10 16.09344 0 0
8:35 pm 20:35 Clear 57 14 50 9.8 76 76 NE 3 6 29.59 1002 10 16.09344 0 0
8:55 pm 20:55 Clear 58 14.5 50 10.1 75 75 NE 6 9 29.59 1002 10 16.09344 0 0
9:15 pm 21:15 Clear 59 15 51 10.6 75 75 ENE 7 11 29.59 1002 10 16.09344 0 0
9:35 pm 21:35 Clear 57 13.9 50 9.8 77 77 Calm 29.62 1003 10 16.09344 0 0
9:55 pm 21:55 Clear 54 12.2 48 8.9 80 80 Calm 29.65 1004 10 16.09344 0 0
10:15 pm 22:15 Clear 56 13.5 50 10.2 81 81 NNE 6 9 29.62 1003 10 16.09344 0 0
10:35 pm 22:35 Clear 56 13.3 50 10.2 82 82 NE 3 6 29.59 1002 10 16.09344 0 0
10:55 pm 22:55 Clear 53 11.6 49 9.4 86 86 NNE 7 11 29.62 1003 10 16.09344 0 0
11:15 pm 23:15 Clear 59 15.1 52 11.3 78 78 N 8 13 29.62 1003 10 16.09344 0 0
11:35 pm 23:35 Clear 57 14.1 51 10.6 80 80 NNE 9 15 29.59 1002 10 16.09344 0 0
11:55 pm 23:55 Clear 63 17.1 53 11.4 69 69 N 8 13 29.56 1001 10 16.09344 0 0

Powered by AerisWeather